Regional Weather Roundup
Issued by NWS

Home | Current Version | Previous Version | Text Only | Print | Product List | Glossary On
Versions: 1 2 3 4 5 6 7 8 9 10 11 12 13 14 15 16 17 18 19 20 21 22 23 24 25 26 27 28 29 30 31 32 33 34 35 36 37 38 39 40 41 42 43 44 45 46 47 48 49 50
000
ASUS45 KABQ 232110
RWRNM
WEATHER ROUNDUP FOR NEW MEXICO
NATIONAL WEATHER SERVICE ALBUQUERQUE NM
300 PM MDT WED APR 23 2014

NOTE: "FAIR" MEANS FEW OR NO CLOUDS BELOW 12,000 FEET AGL WITH NO
       SIGNIFICANT WEATHER OR OBSTRUCTIONS TO VISION.

      THIS PRODUCT IS RELEASED AS TWO VERSIONS.  ONE VERSION NEAR
      THE TOP OF THE HOUR CONTAINING PRELIMINARY DATA FROM ALBUQUERQUE
      AND OTHER STATIONS.  A FINAL VERSION WITH ADDITIONAL DATA IS
      ISSUED ABOUT 10 MINUTES AFTER THE HOUR.

NMZ501-503-504-510>518-232200-
NORTHWEST PLATEAU/NORTHCENTRAL MOUNTAINS

CITY           SKY/WX    TMP DP  RH WIND       PRES   REMARKS
FARMINGTON     SUNNY     62   7  11 W22G31    29.83R
LOS ALAMOS     PTSUNNY   62  18  18 SW18G28   29.85F
SANTA FE       PTSUNNY   70  17  13 W22G32    29.80F
TAOS           PTSUNNY   64  21  19 W23G33    29.84S
ANGEL FIRE     CLOUDY    58  24  27 SW16G32   29.87F

$$
NMZ402-403-502-505>509-232200-
WESTCENTRAL MOUNTAINS/SOUTHWEST MOUNTAINS

CITY           SKY/WX    TMP DP  RH WIND       PRES   REMARKS
GALLUP         CLOUDY    62  15  16 W28G35    29.90R
GRANTS         PTSUNNY   68  13  12 W20G30    29.87F
SILVER CITY    SUNNY     73  19  13 W22G35    29.91F

$$
NMZ407-409-411-412-232200-
SOUTHERN DESERTS

CITY           SKY/WX    TMP DP  RH WIND       PRES   REMARKS
LORDSBURG      FAIR      79  23  12 W24G31    29.85F
DEMING         SUNNY     81  21  11 W21G38    29.82F
LAS CRUCES     SUNNY     82  17   9 W21G33    29.83F
HOLLOMAN AFB   SUNNY     83  13   7 SW17G31   29.77F
ALAMOGORDO     SUNNY     82  16   8 SW18G24   29.80F
T OR C         SUNNY     81  11   7 SW16G29   29.78F

$$
NMZ519>523-232200-
CENTRAL VALLEYS/CENTRAL HIGHLANDS

CITY           SKY/WX    TMP DP  RH WIND       PRES   REMARKS
ALBUQUERQUE    PTSUNNY   75  14  10 W21G26    29.77F
DOUBLE EAGLE   PTSUNNY   72  18  13 W15G26    29.81F
MORIARTY ARPT  FAIR      72  17  12 W20G33    29.82F
CLINES CORNERS SUNNY     68  16  13 W26G35    29.83F
BELEN          FAIR      75  19  12 SW10G20   29.76F
SOCORRO        FAIR      82  12   7 SW15G24   29.74F

$$
NMZ524>526-539-540-232200-
SOUTHCENTRAL MOUNTAINS

CITY           SKY/WX    TMP DP  RH WIND       PRES   REMARKS
RUIDOSO        SUNNY     68  16  13 SW23G38   29.90S

$$
NMZ527>531-232200-
NORTHEAST HIGHLANDS/NORTHEAST PLAINS

CITY           SKY/WX    TMP DP  RH WIND       PRES   REMARKS
LAS VEGAS      SUNNY     68  14  12 W30G41    29.79F
RATON          MOSUNNY   73  17  12 W23G37    29.69F
CLAYTON        SUNNY     81  15   8 SW28G41   29.64F

$$
NMZ532>537-232200-
EASTCENTRAL PLAINS

CITY           SKY/WX    TMP DP  RH WIND       PRES   REMARKS
TUCUMCARI      SUNNY     87  20   8 SW22G36   29.64F
CANNON AFB     MOSUNNY   85  12   6 SW29G38   29.70F
CLOVIS AIRPORT PTSUNNY   84  25  11 SW30G36   29.72F

$$
NMZ028-029-538-232200-
SOUTHEAST PLAINS

CITY           SKY/WX    TMP DP  RH WIND       PRES   REMARKS
ROSWELL        SUNNY     89  10   5 SW20G28   29.67F
ARTESIA        MOSUNNY   86  21   9 SW24G37   29.72F
CARLSBAD       MOSUNNY   88  19   8 W18G35    29.72F
HOBBS          SUNNY     84  25  11 S21       29.76F


$$



USA.gov is the U.S. government's official web portal to all federal, state and local government web resources and services.